Regional Weather Roundup
Issued by NWS Jackson, KY

Home | Current Version | Previous Version | Text Only | Print | Product List | Glossary Off
Versions: 1 2 3 4 5 6 7 8 9 10 11 12 13 14 15 16 17 18 19 20 21 22 23 24 25 26 27 28 29 30 31 32 33 34 35 36 37 38 39 40 41 42 43 44 45 46 47 48 49 50

145
ASUS43 KJKL 270410
RWRJKL

EAST KENTUCKY HOURLY WEATHER ROUNDUP
NATIONAL WEATHER SERVICE JACKSON KY
1200 AM EDT TUE JUN 27 2017

NOTE: "FAIR" INDICATES FEW OR NO CLOUDS BELOW 12,000 FEET WITH
NO SIGNIFICANT WEATHER AND/OR OBSTRUCTIONS TO VISIBILITY.

* THESE REPORTS ARE NOT UNDER NWS QUALITY CONTROL AND MAY NOT
  REPORT WEATHER SUCH AS PRECIPITATION AND FOG.

KYZ079-080-083-085-087-088-110-112-115-119-120-270500
...EASTERN KENTUCKY...

CITY           SKY/WX    TMP DP  RH WIND       PRES   REMARKS
JACKSON        CLOUDY    63  53  70 CALM      30.10S
LONDON         CLOUDY    61  55  81 CALM      30.11F
SOMERSET*      MOCLDY    61  54  77 CALM      30.11F
MONTICELLO*    CLOUDY    61  58  90 W7        30.12F
WILLIAMSBURG*  CLOUDY    59  57  94 CALM      30.12S
MIDDLESBORO*   CLEAR     58  54  86 CALM      30.14S
HARLAN APT*    CLEAR     57  54  88 CALM      30.13S
PIKE CO APT*     N/A     62  52  68 CALM      30.11S
BIG SANDY APT* CLOUDY    64  53  66 S3        30.10S
MOREHEAD APT*  CLOUDY    66  50  55 CALM      30.11S HAZE
ASHLAND*       CLOUDY    66  57  72 CALM      30.05S
$$

KYZ035-036-041-042-044-050-067-078-099-270500
...CENTRAL KENTUCKY...

CITY           SKY/WX    TMP DP  RH WIND       PRES   REMARKS
MT STERLING*   CLOUDY    63  54  72 W3        30.12R
FLEMING/MASON* CLOUDY    64  51  63 W8        30.10R
DANVILLE*      CLOUDY    63  52  67 CALM      30.12R
LEXINGTON      CLOUDY    65  50  58 W3        30.11R
FRANKFORT      CLOUDY    66  46  48 CALM      30.09R
LOUISVILLE     PTCLDY    68  45  43 N5        30.09S
LEBANON*         N/A    N/A N/A N/A MISG        N/A
GLASGOW*       PTCLDY    63  56  78 CALM      30.11R
BOWLING GREEN  PTCLDY    69  56  62 N3        30.11R
$$

KYZ091>093-OHZ055-061-077-WVZ005-015-034-035-042-270500
...SOUTHERN OHIO/WEST VIRGINIA...

CITY           SKY/WX    TMP DP  RH WIND       PRES   REMARKS
COVINGTON      CLOUDY    64  49  57 NW10      30.09R
COLUMBUS       PTCLDY    58  54  86 NW6       30.05R
DAYTON         CLOUDY    55  50  83 SW7       30.07S
WILMINGTON     CLEAR     57  51  80 N7        30.07R
HUNTINGTON     CLOUDY    63  54  72 SW3       30.06S
CHARLESTON     CLOUDY    60  54  80 CALM      30.07F
PINEVILLE*     CLEAR     54  52  94 MISG      30.18R
BECKLEY        CLEAR     54  48  80 S3        30.14R
BLUEFIELD      CLEAR     55  47  74 W5        30.15F
LOGAN CO APT*    N/A     61  52  72 CALM      30.10F
$$

VAZ002-007-008-TNZ017-027-036-066-071-270500
...SOUTHWEST VIRGINIA/EAST TENNESSEE...

CITY           SKY/WX    TMP DP  RH WIND       PRES   REMARKS
WISE*          CLEAR     57  48  72 CALM      30.17S
JONESVILLE*      N/A     55  54  94 CALM      30.15S
ABINGDON*      PTCLDY    63  57  80 CALM      30.13S
MORRISTOWN*    MOCLDY    63  57  82 CALM      30.11R
SEVIERVILLE*   CLEAR     61  55  82 CALM      30.11R
KNOXVILLE      MOCLDY    66  56  70 CALM      30.10R
LAFOLLETTE*      N/A     61  57  88 CALM      30.16R
OAK RIDGE      PTCLDY    62  55  77 CALM      30.13R
CROSSVILLE     PTCLDY    57  54  89 CALM      30.15F
NASHVILLE      CLOUDY    68  56  65 S7        30.10F
$$

...KEY TO REMARKS...
VSB - VISIBILITY IN MILES
WCI - WIND CHILL INDEX
HX  - HEAT INDEX

$$




USA.gov is the U.S. government's official web portal to all federal, state and local government web resources and services.